| time (UTC) | temp F | wind direction | speed MPH | gust MPH | rain 1hr in | rain 24hr in | rain mn in | humidity % | barometer mb |
| 20260504233759 | 77 | 88 | 4.0 | 4.0 | 0.00 | 0.00 | 0.00 | 70 | 1017.0 |
| 20260504232758 | 77 | 187 | 1.0 | 5.0 | 0.00 | 0.00 | 0.00 | 70 | 1017.0 |
| 20260504231757 | 76 | 132 | 4.0 | 5.0 | 0.00 | 0.00 | 0.00 | 70 | 1017.1 |
| 20260504230755 | 77 | 72 | 0.0 | 4.0 | 0.00 | 0.00 | 0.00 | 70 | 1016.9 |
| 20260504225755 | 77 | 59 | 2.0 | 7.0 | 0.00 | 0.00 | 0.00 | 70 | 1017.1 |
| 20260504225449 | 77 | 93 | 7.0 | 7.0 | 0.00 | 0.00 | 0.00 | 70 | 1017.1 |
| 20260504223915 | 75 | 135 | 1.0 | 4.0 | 0.00 | 0.00 | 0.00 | 70 | 1017.4 |
| 20260504222914 | 74 | 86 | 2.0 | 4.0 | 0.00 | 0.00 | 0.00 | 70 | 1017.3 |
| 20260504221913 | 74 | 89 | 0.0 | 4.0 | 0.00 | 0.00 | 0.00 | 70 | 1017.3 |
| 20260504220912 | 73 | 173 | 1.0 | 4.0 | 0.00 | 0.00 | 0.00 | 70 | 1017.4 |
| 20260504215911 | 73 | 183 | 2.0 | 3.0 | 0.00 | 0.00 | 0.00 | 70 | 1017.3 |
| 20260504214910 | 72 | 148 | 2.0 | 3.0 | 0.00 | 0.00 | 0.00 | 70 | 1017.2 |
| 20260504213909 | 71 | 199 | 1.0 | 3.0 | 0.00 | 0.00 | 0.00 | 70 | 1017.2 |
| 20260504212908 | 70 | 123 | 0.0 | 1.0 | 0.00 | 0.00 | 0.00 | 70 | 1017.2 |
| 20260504211907 | 69 | 154 | 0.0 | 1.0 | 0.00 | 0.00 | 0.00 | 70 | 1017.1 |
| 20260504210906 | 69 | 131 | 1.0 | 2.0 | 0.00 | 0.00 | 0.00 | 70 | 1016.8 |
| 20260504204904 | 68 | 45 | 0.0 | 0.0 | 0.00 | 0.00 | 0.00 | 70 | 1016.7 |
| 20260504203902 | 67 | 138 | 0.0 | 1.0 | 0.00 | 0.00 | 0.00 | 70 | 1016.6 |
| 20260504202901 | 67 | 85 | 0.0 | 1.0 | 0.00 | 0.00 | 0.00 | 70 | 1016.4 |
| 20260504201900 | 67 | 279 | 0.0 | 0.0 | 0.00 | 0.00 | 0.00 | 70 | 1016.4 |
| 20260504200859 | 66 | 135 | 0.0 | 0.0 | 0.00 | 0.00 | 0.00 | 70 | 1016.3 |
| 20260504195858 | 66 | 90 | 0.0 | 0.0 | 0.00 | 0.00 | 0.00 | 70 | 1016.3 |
| 20260504194857 | 66 | 135 | 0.0 | 0.0 | 0.00 | 0.00 | 0.00 | 70 | 1016.1 |
| 20260504193856 | 66 | 111 | 0.0 | 2.0 | 0.00 | 0.00 | 0.00 | 70 | 1016.0 |
| 20260504192855 | 66 | 135 | 0.0 | 0.0 | 0.00 | 0.00 | 0.00 | 70 | 1016.0 |
| 20260504191854 | 66 | 45 | 0.0 | 0.0 | 0.00 | 0.00 | 0.00 | 70 | 1015.8 |
| 20260504190853 | 66 | 57 | 0.0 | 0.0 | 0.00 | 0.00 | 0.00 | 70 | 1015.8 |
| 20260504185852 | 66 | 90 | 0.0 | 0.0 | 0.00 | 0.00 | 0.00 | 70 | 1015.7 |
| 20260504184851 | 66 | 45 | 0.0 | 0.0 | 0.00 | 0.00 | 0.00 | 70 | 1015.6 |
| 20260504183849 | 66 | 45 | 0.0 | 0.0 | 0.00 | 0.00 | 0.00 | 70 | 1015.4 |
| 20260504182848 | 66 | 45 | 0.0 | 0.0 | 0.00 | 0.00 | 0.00 | 70 | 1015.6 |
| 20260504181847 | 67 | 45 | 0.0 | 0.0 | 0.00 | 0.00 | 0.00 | 70 | 1015.5 |
| 20260504180846 | 67 | 45 | 0.0 | 0.0 | 0.00 | 0.00 | 0.00 | 70 | 1015.6 |
| 20260504175845 | 67 | 135 | 0.0 | 0.0 | 0.00 | 0.00 | 0.00 | 70 | 1015.5 |
| 20260504174844 | 67 | 45 | 0.0 | 0.0 | 0.00 | 0.00 | 0.00 | 70 | 1015.6 |
| 20260504173843 | 67 | 45 | 0.0 | 0.0 | 0.00 | 0.00 | 0.00 | 70 | 1015.5 |
| 20260504172842 | 67 | 45 | 0.0 | 0.0 | 0.00 | 0.00 | 0.00 | 70 | 1015.6 |
| 20260504171841 | 67 | 45 | 0.0 | 0.0 | 0.00 | 0.00 | 0.00 | 70 | 1015.6 |
| 20260504170840 | 67 | 45 | 0.0 | 0.0 | 0.00 | 0.00 | 0.00 | 70 | 1015.6 |
| 20260504150827 | 67 | 45 | 0.0 | 0.0 | 0.00 | 0.00 | 0.00 | 70 | 1016.3 |
| 20260504140823 | 68 | 226 | 0.0 | 0.0 | 0.00 | 0.00 | 0.00 | 70 | 1016.1 |
| 20260504130814 | 70 | 45 | 0.0 | 0.0 | 0.00 | 0.00 | 0.00 | 70 | 1016.6 |
| 20260504081743 | 75 | 45 | 0.0 | 0.0 | 0.00 | 0.00 | 0.00 | 70 | 1014.9 |
| 20260504080742 | 75 | 45 | 0.0 | 0.0 | 0.00 | 0.00 | 0.00 | 70 | 1014.8 |
| 20260504050723 | 89 | 68 | 1.0 | 2.0 | 0.00 | 0.00 | 0.00 | 70 | 1013.9 |
| 20260504045722 | 89 | 24 | 2.0 | 4.0 | 0.00 | 0.00 | 0.00 | 70 | 1013.8 |
| 20260504044721 | 90 | 58 | 2.0 | 2.0 | 0.00 | 0.00 | 0.00 | 70 | 1013.8 |
| 20260504043719 | 90 | 61 | 1.0 | 3.0 | 0.00 | 0.00 | 0.00 | 70 | 1013.9 |
| 20260504042718 | 90 | 25 | 2.0 | 5.0 | 0.00 | 0.00 | 0.00 | 70 | 1013.8 |
| 20260504041718 | 91 | 106 | 0.0 | 2.0 | 0.00 | 0.00 | 0.00 | 70 | 1013.8 |
| 20260504040717 | 91 | 82 | 2.0 | 3.0 | 0.00 | 0.00 | 0.00 | 70 | 1013.8 |
| 20260504035715 | 90 | 82 | 1.0 | 2.0 | 0.00 | 0.00 | 0.00 | 70 | 1014.0 |
| 20260504034714 | 90 | 58 | 0.0 | 1.0 | 0.00 | 0.00 | 0.00 | 70 | 1013.9 |
| 20260504033713 | 90 | 59 | 1.0 | 4.0 | 0.00 | 0.00 | 0.00 | 70 | 1014.1 |
| 20260504032712 | 90 | 87 | 0.0 | 4.0 | 0.00 | 0.00 | 0.00 | 70 | 1014.3 |
| 20260504031711 | 90 | 245 | 0.0 | 3.0 | 0.00 | 0.00 | 0.00 | 70 | 1014.3 |
| 20260504030710 | 90 | 138 | 1.0 | 4.0 | 0.00 | 0.00 | 0.00 | 70 | 1014.4 |
| 20260504025709 | 89 | 270 | 0.0 | 2.0 | 0.00 | 0.00 | 0.00 | 70 | 1014.6 |
| 20260504024708 | 89 | 275 | 1.0 | 3.0 | 0.00 | 0.00 | 0.00 | 70 | 1014.8 |
| 20260504020704 | 88 | 211 | 0.0 | 4.0 | 0.00 | 0.00 | 0.00 | 70 | 1015.7 |
| 20260504013700 | 86 | 50 | 0.0 | 3.0 | 0.00 | 0.00 | 0.00 | 70 | 1016.0 |
| 20260504010657 | 84 | 135 | 0.0 | 2.0 | 0.00 | 0.00 | 0.00 | 70 | 1016.5 |
| 20260504001652 | 82 | 60 | 0.0 | 3.0 | 0.00 | 0.00 | 0.00 | 70 | 1017.4 |
| 20260503234649 | 80 | 94 | 0.0 | 2.0 | 0.00 | 0.00 | 0.00 | 70 | 1017.5 |